sat.trackr.live / text

‹ back to catalog

STARLINK-35451

NORAD 66469 · 2025-262P

PAYLOAD ACTIVE UNKNOWN

§ Identity

Operator
Country
US
Launch date
2025-11-15
Launch site
AFETR
Launch vehicle
Mass (kg)
RCS (m²)

Purposes: comms

External: N2YO · Heavens-Above · Gunter

§ Orbital elements

Epoch: 2026-09-20T02:31:09.087456Z

Period
94.27 min
Inclination
42.9996°
Eccentricity
0.0001081
Mean motion
15.27592430 rev/d
Perigee alt
482.3 km
Apogee alt
483.8 km
Semi-major
6,861.1 km
B*
2.5971e-4
RAAN
277.8716°
Arg perigee
220.5236°
Mean anomaly
139.5535°
Rev number
4,864

§ Raw data

STARLINK-354511 66469U 25262P   26263.10496629  .00006894  00000+0  25971-3 0  99972 66469  42.9996 277.8716 0001081 220.5236 139.5535 15.27592430 48641

JSON: /api/v1/satellites/66469 · /tle

For live sub-satellite position, see the globe view (requires WebGL).

§ Visibility from observer

Set your observer location to see the next 7 days of passes ≥ 10°. The values pass through the URL so the page stays shareable.

No JS? Fill the form by hand. The geolocation button needs JavaScript.